Find Starlink 30928

NORAD ID: 58452 Int'l Des: 2023-183 Owner: SPXS Country: US Constellation: starlink operational
LEOCIRCULAR

リアルタイム位置

3D地球を読み込み中...

Starlink 30928について

説明を読み込み中...

次回通過

Passes for default location (London). Set your location on the main map for personalized predictions.

高度履歴

Loading altitude history...

軌道要素

1 58452U 23183R 26121.64176949 -.00000717 00000-0 -16556-4 0 9993
2 58452 43.0036 102.4880 0000974 286.2563 73.8181 15.27571851134825
Epoch: May 1, 2026 • Age: 11 hours

現在のステータス

高度 484.5 km
速度 7.62 km/s
衛星直下点 -10.78°S, 166.59°W
打ち上げ日 Nov 28, 2023
運用期間 2.4 years
タイプ internet

技術仕様

分類 Payload
質量 730.00 kg
乾燥質量 700.00 kg
総質量 730.00 kg
長さ 0.30 m
直径 4.10 m
スパン 29.00 m
形状 Box + pan
製造者 SPXS
バスタイプ Starlink V2M
フェーズステータス In Orbit
所有者/国 SPXS/US

Most Searched